| time (UTC) | temp F | wind direction | speed knots | gust knots | rain 1hr in | rain 24hr in | rain mn in | humidity % | barometer mb |
| 20260906231016 | 41 | 0.0 | 0.0 | 0.00 | 0.00 | 0.00 | 99 | 1016.3 | |
| 20260906230031 | 42 | 0.0 | 0.0 | 0.00 | 0.00 | 0.00 | 99 | 1016.4 | |
| 20260906225026 | 42 | 0.0 | 0.0 | 0.00 | 0.00 | 0.00 | 99 | 1016.4 | |
| 20260906224021 | 43 | 0.0 | 0.0 | 0.00 | 0.00 | 0.00 | 99 | 1016.3 | |
| 20260906223016 | 42 | 0.0 | 0.0 | 0.00 | 0.00 | 0.00 | 99 | 1016.5 | |
| 20260906222031 | 43 | 0.0 | 0.0 | 0.00 | 0.00 | 0.00 | 99 | 1016.3 | |
| 20260906221027 | 43 | 0.0 | 0.0 | 0.00 | 0.00 | 0.00 | 99 | 1016.6 | |
| 20260906220043 | 43 | 0.0 | 0.0 | 0.00 | 0.00 | 0.00 | 99 | 1016.4 | |
| 20260906215016 | 44 | 0.0 | 0.0 | 0.00 | 0.00 | 0.00 | 99 | 1016.2 | |
| 20260906214033 | 44 | 186 | 0.0 | 0.9 | 0.00 | 0.00 | 0.00 | 99 | 1016.4 |
| 20260906213028 | 44 | 0.0 | 0.0 | 0.00 | 0.00 | 0.00 | 99 | 1016.4 | |
| 20260906212024 | 44 | 0.0 | 0.0 | 0.00 | 0.00 | 0.00 | 99 | 1016.3 | |
| 20260906211019 | 43 | 0.0 | 0.0 | 0.00 | 0.00 | 0.00 | 99 | 1016.3 | |
| 20260906210035 | 43 | 0.0 | 0.0 | 0.00 | 0.00 | 0.00 | 99 | 1016.3 | |
| 20260906205029 | 43 | 0.0 | 0.0 | 0.00 | 0.00 | 0.00 | 98 | 1016.2 | |
| 20260906204024 | 44 | 0.0 | 0.0 | 0.00 | 0.00 | 0.00 | 98 | 1016.2 | |
| 20260906203020 | 45 | 0.0 | 0.0 | 0.00 | 0.00 | 0.00 | 98 | 1016.2 | |
| 20260906202016 | 46 | 0.0 | 0.0 | 0.00 | 0.00 | 0.00 | 98 | 1016.2 | |
| 20260906201031 | 45 | 0.0 | 0.0 | 0.00 | 0.00 | 0.00 | 97 | 1016.2 | |
| 20260906200026 | 46 | 0.0 | 0.0 | 0.00 | 0.00 | 0.00 | 97 | 1016.1 | |
| 20260906195021 | 46 | 0.0 | 0.0 | 0.00 | 0.00 | 0.00 | 96 | 1016.0 | |
| 20260906194016 | 47 | 0.0 | 0.0 | 0.00 | 0.00 | 0.00 | 96 | 1015.8 | |
| 20260906193032 | 47 | 166 | 0.0 | 0.9 | 0.00 | 0.00 | 0.00 | 96 | 1015.7 |
| 20260906192108 | 47 | 0.0 | 0.0 | 0.00 | 0.00 | 0.00 | 95 | 1015.8 | |
| 20260906191023 | 48 | 0.0 | 0.0 | 0.00 | 0.00 | 0.00 | 95 | 1015.8 | |
| 20260906190020 | 49 | 0.0 | 0.0 | 0.00 | 0.00 | 0.00 | 94 | 1015.9 | |
| 20260906185035 | 49 | 0.0 | 0.0 | 0.00 | 0.00 | 0.00 | 93 | 1015.9 | |
| 20260906184030 | 50 | 0.0 | 0.0 | 0.00 | 0.00 | 0.00 | 91 | 1015.9 | |
| 20260906183026 | 51 | 0.0 | 0.0 | 0.00 | 0.00 | 0.00 | 90 | 1015.9 | |
| 20260906182021 | 52 | 0.0 | 0.0 | 0.00 | 0.00 | 0.00 | 89 | 1015.9 | |
| 20260906181016 | 53 | 0.0 | 0.0 | 0.00 | 0.00 | 0.00 | 86 | 1015.7 | |
| 20260906180112 | 54 | 0.0 | 0.0 | 0.00 | 0.00 | 0.00 | 84 | 1015.6 | |
| 20260906175026 | 55 | 0.0 | 0.0 | 0.00 | 0.00 | 0.00 | 80 | 1015.6 | |
| 20260906174022 | 57 | 0.0 | 0.0 | 0.00 | 0.00 | 0.00 | 78 | 1015.4 | |
| 20260906173037 | 59 | 0.0 | 0.0 | 0.00 | 0.00 | 0.00 | 73 | 1015.4 | |
| 20260906172052 | 61 | 0.0 | 0.0 | 0.00 | 0.00 | 0.00 | 69 | 1015.3 | |
| 20260906171107 | 62 | 0.0 | 0.0 | 0.00 | 0.00 | 0.00 | 64 | 1015.3 | |
| 20260906170044 | 62 | 195 | 0.0 | 0.9 | 0.00 | 0.00 | 0.00 | 63 | 1015.3 |
| 20260906165018 | 64 | 204 | 0.9 | 1.7 | 0.00 | 0.00 | 0.00 | 55 | 1015.1 |
| 20260906164033 | 66 | 249 | 1.7 | 5.2 | 0.00 | 0.00 | 0.00 | 52 | 1015.0 |
| 20260906163029 | 67 | 231 | 1.7 | 3.5 | 0.00 | 0.00 | 0.00 | 51 | 1015.0 |
| 20260906162024 | 67 | 236 | 1.7 | 3.5 | 0.00 | 0.00 | 0.00 | 50 | 1015.0 |
| 20260906161019 | 67 | 221 | 1.7 | 2.6 | 0.00 | 0.00 | 0.00 | 50 | 1015.1 |
| 20260906160035 | 67 | 248 | 3.5 | 6.1 | 0.00 | 0.00 | 0.00 | 50 | 1014.9 |
| 20260906155030 | 67 | 263 | 4.3 | 8.7 | 0.00 | 0.00 | 0.00 | 50 | 1014.8 |
| 20260906154026 | 67 | 245 | 3.5 | 7.0 | 0.00 | 0.00 | 0.00 | 51 | 1014.7 |
| 20260906153021 | 68 | 217 | 0.9 | 1.7 | 0.00 | 0.00 | 0.00 | 52 | 1014.8 |
| 20260906152017 | 67 | 212 | 0.9 | 1.7 | 0.00 | 0.00 | 0.00 | 51 | 1014.7 |
| 20260906151032 | 64 | 212 | 0.9 | 1.7 | 0.00 | 0.00 | 0.00 | 54 | 1014.7 |
| 20260906150027 | 65 | 231 | 2.6 | 5.2 | 0.00 | 0.00 | 0.00 | 54 | 1014.6 |
| 20260906145023 | 68 | 227 | 2.6 | 8.7 | 0.00 | 0.00 | 0.00 | 49 | 1014.5 |
| 20260906144019 | 68 | 239 | 2.6 | 6.1 | 0.00 | 0.00 | 0.00 | 50 | 1014.6 |
| 20260906143033 | 67 | 252 | 2.6 | 6.1 | 0.00 | 0.00 | 0.00 | 50 | 1014.7 |
| 20260906142028 | 66 | 231 | 2.6 | 5.2 | 0.00 | 0.00 | 0.00 | 52 | 1014.7 |
| 20260906141024 | 66 | 259 | 2.6 | 5.2 | 0.00 | 0.00 | 0.00 | 52 | 1014.7 |
| 20260906140019 | 67 | 242 | 2.6 | 7.8 | 0.00 | 0.00 | 0.00 | 49 | 1014.7 |
| 20260906135055 | 67 | 264 | 3.5 | 8.7 | 0.00 | 0.00 | 0.00 | 49 | 1014.6 |
| 20260906134030 | 66 | 257 | 3.5 | 7.0 | 0.00 | 0.00 | 0.00 | 51 | 1014.7 |
| 20260906133026 | 65 | 258 | 3.5 | 6.1 | 0.00 | 0.00 | 0.00 | 53 | 1014.6 |
| 20260906132040 | 64 | 252 | 2.6 | 6.1 | 0.00 | 0.00 | 0.00 | 53 | 1014.6 |
| 20260906131016 | 64 | 262 | 4.3 | 9.6 | 0.00 | 0.00 | 0.00 | 52 | 1014.7 |
| 20260906130031 | 65 | 253 | 3.5 | 8.7 | 0.00 | 0.00 | 0.00 | 51 | 1014.5 |
| 20260906125026 | 67 | 258 | 4.3 | 8.7 | 0.00 | 0.00 | 0.00 | 51 | 1014.5 |
| 20260906124042 | 65 | 257 | 2.6 | 7.0 | 0.00 | 0.00 | 0.00 | 53 | 1014.4 |
| 20260906123017 | 65 | 255 | 2.6 | 7.0 | 0.00 | 0.00 | 0.00 | 54 | 1014.4 |
| 20260906122032 | 64 | 226 | 1.7 | 3.5 | 0.00 | 0.00 | 0.00 | 57 | 1014.4 |
| 20260906121108 | 63 | 228 | 1.7 | 5.2 | 0.00 | 0.00 | 0.00 | 59 | 1014.3 |
| 20260906120023 | 64 | 261 | 0.9 | 3.5 | 0.00 | 0.00 | 0.00 | 59 | 1014.3 |
| 20260906115018 | 63 | 241 | 1.7 | 3.5 | 0.00 | 0.00 | 0.00 | 59 | 1014.4 |
| 20260906114034 | 63 | 240 | 1.7 | 7.8 | 0.00 | 0.00 | 0.00 | 59 | 1014.1 |
| 20260906113029 | 63 | 189 | 0.9 | 3.5 | 0.00 | 0.00 | 0.00 | 60 | 1014.0 |
| 20260906112025 | 64 | 223 | 1.7 | 3.5 | 0.00 | 0.00 | 0.00 | 59 | 1014.0 |
| 20260906111040 | 64 | 229 | 1.7 | 6.1 | 0.00 | 0.00 | 0.00 | 59 | 1013.9 |
| 20260906110015 | 64 | 262 | 3.5 | 7.8 | 0.00 | 0.00 | 0.00 | 59 | 1013.9 |
| 20260906105031 | 64 | 261 | 2.6 | 8.7 | 0.00 | 0.00 | 0.00 | 59 | 1013.7 |
| 20260906104027 | 65 | 230 | 1.7 | 5.2 | 0.00 | 0.00 | 0.00 | 61 | 1013.8 |
| 20260906103022 | 63 | 169 | 1.7 | 5.2 | 0.00 | 0.00 | 0.00 | 62 | 1013.7 |
| 20260906102016 | 64 | 247 | 1.7 | 6.1 | 0.00 | 0.00 | 0.00 | 62 | 1013.6 |
| 20260906101052 | 65 | 213 | 2.6 | 6.1 | 0.00 | 0.00 | 0.00 | 61 | 1013.5 |
| 20260906100028 | 65 | 215 | 1.7 | 3.5 | 0.00 | 0.00 | 0.00 | 61 | 1013.5 |
| 20260906095023 | 64 | 197 | 1.7 | 3.5 | 0.00 | 0.00 | 0.00 | 63 | 1013.5 |
| 20260906094038 | 63 | 243 | 3.5 | 8.7 | 0.00 | 0.00 | 0.00 | 65 | 1013.4 |
| 20260906093034 | 63 | 238 | 2.6 | 6.1 | 0.00 | 0.00 | 0.00 | 65 | 1013.4 |
| 20260906092029 | 63 | 257 | 3.5 | 6.1 | 0.00 | 0.00 | 0.00 | 66 | 1013.4 |
| 20260906091024 | 63 | 232 | 1.7 | 5.2 | 0.00 | 0.00 | 0.00 | 67 | 1013.4 |
| 20260906090019 | 62 | 252 | 3.5 | 7.0 | 0.00 | 0.00 | 0.00 | 68 | 1013.4 |
| 20260906085034 | 61 | 226 | 1.7 | 5.2 | 0.00 | 0.00 | 0.00 | 69 | 1013.3 |
| 20260906084029 | 61 | 229 | 2.6 | 6.1 | 0.00 | 0.00 | 0.00 | 70 | 1013.2 |
| 20260906083024 | 60 | 239 | 2.6 | 6.1 | 0.00 | 0.00 | 0.00 | 72 | 1013.0 |
| 20260906082019 | 61 | 243 | 3.5 | 6.1 | 0.00 | 0.00 | 0.00 | 72 | 1013.0 |
| 20260906081036 | 61 | 242 | 2.6 | 6.1 | 0.00 | 0.00 | 0.00 | 72 | 1012.7 |
| 20260906080031 | 60 | 254 | 2.6 | 6.1 | 0.00 | 0.00 | 0.00 | 74 | 1012.8 |
| 20260906075026 | 59 | 238 | 2.6 | 5.2 | 0.00 | 0.00 | 0.00 | 76 | 1012.6 |
| 20260906074021 | 59 | 235 | 3.5 | 7.8 | 0.00 | 0.00 | 0.00 | 78 | 1012.6 |
| 20260906073015 | 58 | 254 | 3.5 | 5.2 | 0.00 | 0.00 | 0.00 | 80 | 1012.6 |
| 20260906072032 | 57 | 249 | 3.5 | 5.2 | 0.00 | 0.00 | 0.00 | 81 | 1012.4 |
| 20260906071026 | 56 | 234 | 2.6 | 5.2 | 0.00 | 0.00 | 0.00 | 83 | 1012.5 |
| 20260906070022 | 56 | 224 | 1.7 | 5.2 | 0.00 | 0.00 | 0.00 | 84 | 1012.4 |
| 20260906065016 | 56 | 259 | 2.6 | 6.1 | 0.00 | 0.00 | 0.00 | 84 | 1012.2 |
| 20260906064032 | 55 | 236 | 1.7 | 3.5 | 0.00 | 0.00 | 0.00 | 86 | 1012.0 |
| 20260906063027 | 54 | 244 | 2.6 | 5.2 | 0.00 | 0.00 | 0.00 | 87 | 1011.9 |
| 20260906062022 | 53 | 240 | 1.7 | 6.1 | 0.00 | 0.00 | 0.00 | 88 | 1011.7 |
| 20260906061016 | 53 | 255 | 1.7 | 3.5 | 0.00 | 0.00 | 0.00 | 89 | 1011.7 |
| 20260906060052 | 52 | 247 | 1.7 | 5.2 | 0.00 | 0.00 | 0.00 | 91 | 1011.8 |
| 20260906055028 | 51 | 252 | 2.6 | 5.2 | 0.00 | 0.00 | 0.00 | 91 | 1011.8 |
| 20260906054023 | 51 | 226 | 1.7 | 3.5 | 0.00 | 0.00 | 0.00 | 92 | 1011.5 |
| 20260906053018 | 50 | 216 | 1.7 | 3.5 | 0.00 | 0.00 | 0.00 | 93 | 1011.5 |
| 20260906052034 | 50 | 230 | 1.7 | 3.5 | 0.00 | 0.00 | 0.00 | 94 | 1011.3 |
| 20260906051028 | 49 | 239 | 1.7 | 5.2 | 0.00 | 0.00 | 0.00 | 94 | 1011.2 |
| 20260906050024 | 49 | 220 | 1.7 | 3.5 | 0.00 | 0.00 | 0.00 | 95 | 1011.2 |
| 20260906045019 | 48 | 251 | 2.6 | 3.5 | 0.00 | 0.00 | 0.00 | 96 | 1011.2 |
| 20260906044035 | 47 | 227 | 1.7 | 3.5 | 0.00 | 0.00 | 0.00 | 97 | 1011.0 |
| 20260906043029 | 48 | 216 | 0.9 | 1.7 | 0.00 | 0.00 | 0.00 | 96 | 1010.8 |
| 20260906042025 | 48 | 245 | 1.7 | 2.6 | 0.00 | 0.00 | 0.00 | 96 | 1010.6 |
| 20260906041020 | 48 | 245 | 2.6 | 3.5 | 0.00 | 0.00 | 0.00 | 96 | 1010.6 |
| 20260906040056 | 48 | 234 | 1.7 | 2.6 | 0.00 | 0.00 | 0.00 | 96 | 1010.5 |
| 20260906035051 | 47 | 245 | 1.7 | 3.5 | 0.00 | 0.00 | 0.00 | 97 | 1010.5 |
| 20260906034026 | 47 | 229 | 1.7 | 6.1 | 0.00 | 0.00 | 0.00 | 97 | 1010.2 |
| 20260906033041 | 47 | 245 | 0.9 | 2.6 | 0.00 | 0.00 | 0.00 | 97 | 1010.1 |
| 20260906032015 | 47 | 227 | 2.6 | 3.5 | 0.00 | 0.00 | 0.00 | 97 | 1010.2 |
| 20260906031051 | 47 | 240 | 0.9 | 3.5 | 0.00 | 0.00 | 0.00 | 97 | 1010.0 |
| 20260906030027 | 48 | 219 | 0.9 | 2.6 | 0.00 | 0.00 | 0.00 | 97 | 1009.8 |
| 20260906025022 | 48 | 236 | 1.7 | 3.5 | 0.00 | 0.00 | 0.00 | 98 | 1009.7 |
| 20260906024018 | 47 | 246 | 2.6 | 5.2 | 0.00 | 0.00 | 0.00 | 99 | 1009.6 |
| 20260906023034 | 47 | 232 | 1.7 | 3.5 | 0.00 | 0.00 | 0.00 | 99 | 1009.4 |
| 20260906022028 | 46 | 237 | 0.9 | 3.5 | 0.00 | 0.00 | 0.00 | 99 | 1009.4 |
| 20260906021023 | 41 | 0.0 | 0.0 | 0.00 | 0.00 | 0.00 | 99 | 1009.3 | |
| 20260906020019 | 42 | 0.0 | 0.0 | 0.00 | 0.00 | 0.00 | 99 | 1009.1 | |
| 20260906015033 | 45 | 192 | 0.0 | 0.9 | 0.00 | 0.00 | 0.00 | 99 | 1009.1 |
| 20260906014048 | 45 | 204 | 0.0 | 0.9 | 0.00 | 0.00 | 0.00 | 99 | 1009.1 |
| 20260906013023 | 46 | 211 | 0.0 | 0.9 | 0.00 | 0.00 | 0.00 | 99 | 1009.0 |
| 20260906012038 | 44 | 207 | 0.0 | 1.7 | 0.00 | 0.00 | 0.00 | 99 | 1008.9 |
| 20260906011034 | 43 | 0.0 | 0.0 | 0.00 | 0.00 | 0.00 | 99 | 1008.7 | |
| 20260906010028 | 44 | 200 | 0.0 | 0.9 | 0.00 | 0.00 | 0.00 | 99 | 1008.6 |
| 20260906005044 | 41 | 0.0 | 0.0 | 0.00 | 0.00 | 0.00 | 99 | 1008.6 | |
| 20260906004020 | 41 | 0.0 | 0.0 | 0.00 | 0.00 | 0.00 | 99 | 1008.5 | |
| 20260906003035 | 41 | 0.0 | 0.0 | 0.00 | 0.00 | 0.00 | 99 | 1008.4 | |
| 20260906002029 | 42 | 0.0 | 0.0 | 0.00 | 0.00 | 0.00 | 99 | 1008.4 | |
| 20260906001024 | 43 | 0.0 | 0.0 | 0.00 | 0.00 | 0.00 | 99 | 1008.4 | |
| 20260906000040 | 44 | 0.0 | 0.0 | 0.00 | 0.00 | 0.00 | 99 | 1008.2 | |
| 20260905235016 | 43 | 0.0 | 0.0 | 0.00 | 0.00 | 0.00 | 99 | 1008.2 | |
| 20260905234031 | 43 | 0.0 | 0.0 | 0.00 | 0.00 | 0.00 | 99 | 1008.1 | |
| 20260905233046 | 44 | 0.0 | 0.0 | 0.00 | 0.00 | 0.00 | 99 | 1008.0 | |
| 20260905232041 | 43 | 0.0 | 0.0 | 0.00 | 0.00 | 0.00 | 99 | 1008.0 |